ASTRA 2G

Last updated on Tue Sep 22 2026 00:03:13 GMT+0000 (Coordinated Universal Time)

1 40364U 14089A 26264.13832913 .00000146 00000+0 00000+0 0 9998 2 40364 0.0616 346.0583 0002679 114.9996 336.9779 1.00275564 42925
UTC large
Height (km)
Speed (km/s)
/
Latitude / Longitude
Inclination (degrees)
Orbital Period (minutes)
Azimuth
Elevation
Range (km)
Doppler Factor

Next 0 passes for location: London (51.5072 / 0.1276)

No passes found over London.
ASTRA 2G